EW6604 Weather Reports


Display with metric or nautical units.
time (UTC)temp
F
wind
direction
speed
MPH
gust
MPH
rain 1hr
in
rain 24hr
in
rain mn
in
humidity
%
barometer
mb
20260904141219 86 238 0.0 4.0 0.00 0.81 0.00 82 1015.6
20260904140716 85 253 1.0 5.0 0.00 0.81 0.00 83 1015.6
20260904140220 85 334 2.0 5.0 0.00 0.81 0.00 82 1015.5
20260904135724 86 275 1.0 4.0 0.00 0.81 0.00 82 1015.5
20260904135209 86 272 2.0 4.0 0.00 0.81 0.00 82 1015.5
20260904134715 87 156 1.0 3.0 0.00 0.81 0.00 83 1015.5
20260904134218 86 199 1.0 5.0 0.00 0.81 0.00 84 1015.4
20260904133743 85 114 1.0 5.0 0.00 0.81 0.00 84 1015.4
20260904133205 85 197 1.0 5.0 0.00 0.81 0.00 84 1015.4
20260904132730 85 153 2.0 5.0 0.00 0.81 0.00 84 1015.5
20260904132234 85 197 1.0 5.0 0.00 0.81 0.00 85 1015.4
20260904131718 85 160 1.0 4.0 0.00 0.81 0.00 86 1015.4
20260904131358 85 215 2.0 4.0 0.00 0.81 0.00 86 1015.5
20260904130213 85 160 1.0 3.0 0.00 0.81 0.00 86 1015.4
20260904125718 85 144 1.0 3.0 0.00 0.81 0.00 87 1015.5
20260904125222 84 146 0.0 4.0 0.00 0.81 0.00 87 1015.5
20260904124707 84 139 1.0 4.0 0.00 0.81 0.00 87 1015.5
20260904124210 84 159 1.0 2.0 0.00 0.81 0.00 88 1015.5
20260904123735 84 160 0.0 1.0 0.00 0.81 0.00 88 1015.5
20260904123219 84 149 0.0 1.0 0.00 0.81 0.00 89 1015.6
20260904122724 84 138 0.0 2.0 0.00 0.81 0.00 91 1015.6
20260904122208 83 146 0.0 0.0 0.00 0.81 0.00 93 1015.6
20260904121717 82 141 0.0 0.0 0.00 0.81 0.00 94 1015.5
20260904121222 81 141 0.0 0.0 0.00 0.81 0.00 94 1015.4
20260904120719 79 141 0.0 0.0 0.00 0.81 0.00 94 1015.4
20260904120244 79 141 0.0 0.0 0.00 0.81 0.00 94 1015.4
20260904115239 78 141 0.0 0.0 0.00 0.81 0.00 95 1015.2
20260904114723 78 141 0.0 0.0 0.00 0.81 0.00 95 1015.2
20260904114207 77 141 0.0 0.0 0.00 0.81 0.00 95 1015.2
20260904113711 77 141 0.0 0.0 0.00 0.81 0.00 95 1015.1
20260904113215 77 141 0.0 0.0 0.00 0.81 0.00 95 1015.1
20260904112719 78 141 0.0 0.0 0.00 0.81 0.00 95 1015.0
20260904112223 78 141 0.0 0.0 0.00 0.81 0.00 95 1015.0
20260904111708 78 141 0.0 0.0 0.00 0.81 0.00 95 1015.0
20260904111233 78 141 0.0 0.0 0.00 0.81 0.00 95 1014.9
20260904110717 78 141 0.0 0.0 0.00 0.81 0.00 95 1014.9
20260904110207 78 141 0.0 0.0 0.00 0.81 0.00 95 1014.8
20260904105711 78 141 0.0 0.0 0.00 0.81 0.00 95 1014.8
20260904105236 78 141 0.0 0.0 0.00 0.81 0.00 95 1014.7
20260904104719 78 141 0.0 0.0 0.00 0.81 0.00 95 1014.7
20260904104224 78 141 0.0 0.0 0.00 0.81 0.00 95 1014.6
20260904103729 78 141 0.0 0.0 0.00 0.81 0.00 95 1014.6
20260904103211 78 141 0.0 0.0 0.00 0.81 0.00 95 1014.6
20260904102716 78 141 0.0 0.0 0.00 0.81 0.00 95 1014.6
20260904102220 78 141 0.0 0.0 0.00 0.81 0.00 95 1014.5
20260904101705 77 141 0.0 0.0 0.00 0.81 0.00 95 1014.4
20260904101210 77 141 0.0 0.0 0.00 0.81 0.00 95 1014.3
20260904100726 77 141 0.0 0.0 0.00 0.81 0.00 95 1014.3
20260904100209 77 137 0.0 0.0 0.00 0.81 0.00 95 1014.2
20260904095744 77 131 0.0 0.0 0.00 0.81 0.00 95 1014.2
20260904095208 77 131 0.0 0.0 0.00 0.81 0.00 94 1014.1
20260904094713 77 131 0.0 0.0 0.00 0.81 0.00 94 1014.2
20260904094217 77 131 0.0 0.0 0.00 0.81 0.00 94 1014.1
20260904093722 78 131 0.0 0.0 0.00 0.81 0.00 94 1014.2
20260904093208 78 130 0.0 0.0 0.00 0.81 0.00 94 1014.3
20260904092713 78 130 0.0 0.0 0.00 0.81 0.00 94 1014.2
20260904092218 78 130 0.0 0.0 0.00 0.81 0.00 94 1014.3
20260904091722 78 130 0.0 0.0 0.00 0.81 0.00 94 1014.3
20260904091210 78 130 0.0 0.0 0.00 0.81 0.00 94 1014.3
20260904090716 78 129 0.0 0.0 0.00 0.81 0.00 94 1014.2
20260904090221 78 129 0.0 0.0 0.00 0.81 0.00 94 1014.2
20260904085706 78 129 0.0 0.0 0.00 0.81 0.00 95 1014.2
20260904085211 78 130 0.0 0.0 0.00 0.81 0.00 94 1014.2
20260904084716 78 127 0.0 0.0 0.00 0.81 0.00 94 1014.1
20260904084240 78 127 0.0 0.0 0.00 0.81 0.00 94 1014.1
20260904083704 78 126 0.0 0.0 0.00 0.81 0.00 94 1014.1
20260904083228 78 126 0.0 0.0 0.00 0.81 0.00 94 1014.1
20260904082712 78 126 0.0 0.0 0.00 0.81 0.00 94 1014.1
20260904082217 78 127 0.0 0.0 0.00 0.81 0.00 94 1014.0
20260904081722 78 127 0.0 0.0 0.00 0.81 0.00 94 1014.1
20260904081211 78 127 0.0 0.0 0.00 0.81 0.00 94 1014.0
20260904080706 78 124 0.0 0.0 0.00 0.81 0.00 94 1014.0
20260904080209 78 124 0.0 0.0 0.00 0.81 0.00 94 1014.1
20260904075714 78 127 0.0 0.0 0.00 0.81 0.00 94 1014.1
20260904075219 78 125 0.0 0.0 0.00 0.81 0.00 94 1014.2
20260904074724 78 125 0.0 0.0 0.00 0.81 0.00 94 1014.1
20260904074209 78 125 0.0 0.0 0.00 0.81 0.00 94 1014.0
20260904073714 78 125 0.0 0.0 0.00 0.81 0.00 94 1013.9
20260904073219 78 125 0.0 0.0 0.00 0.81 0.00 94 1014.0
20260904072744 78 125 0.0 0.0 0.00 0.81 0.00 94 1013.9
20260904071719 78 125 0.0 0.0 0.00 0.81 0.00 94 1013.9
20260904071224 78 125 0.0 0.0 0.00 0.81 0.00 94 1014.0
20260904070739 78 125 0.0 0.0 0.00 0.81 0.00 94 1014.0
20260904070224 78 125 0.0 0.0 0.00 0.81 0.00 94 1014.0
20260904065729 78 125 0.0 0.0 0.00 0.81 0.00 94 1014.0
20260904065217 78 125 0.0 0.0 0.00 0.81 0.00 94 1014.0
20260904064722 78 125 0.0 0.0 0.00 0.81 0.00 94 1014.1
20260904064207 78 125 0.0 0.0 0.00 0.81 0.00 94 1014.2
20260904063712 78 125 0.0 0.0 0.00 0.81 0.00 94 1014.2
20260904063217 78 125 0.0 0.0 0.00 0.81 0.00 94 1014.3
20260904062722 78 125 0.0 0.0 0.00 0.81 0.00 94 1014.2
20260904062207 78 125 0.0 0.0 0.00 0.81 0.00 94 1014.2
20260904061712 78 125 0.0 0.0 0.00 0.81 0.00 94 1014.2
20260904061217 78 125 0.0 0.0 0.00 0.81 0.00 94 1014.3
20260904060714 78 125 0.0 0.0 0.00 0.81 0.00 94 1014.3
20260904060219 78 125 0.0 0.0 0.00 0.81 0.00 94 1014.4
20260904055708 78 127 0.0 0.0 0.00 0.81 0.00 94 1014.6
20260904055213 78 127 0.0 0.0 0.00 0.81 0.00 94 1014.7
20260904054738 78 127 0.0 0.0 0.00 0.81 0.00 94 1014.7
20260904054222 78 128 0.0 0.0 0.00 0.81 0.00 94 1014.8
20260904053705 78 122 0.0 0.0 0.00 0.81 0.00 94 1014.8
20260904053209 78 124 0.0 0.0 0.00 0.81 0.00 94 1014.9
20260904052735 78 125 0.0 0.0 0.00 0.81 0.00 94 1015.0
20260904052240 78 129 0.0 0.0 0.00 0.81 0.00 94 1015.0
20260904051724 78 126 0.0 0.0 0.00 0.81 0.00 94 1015.0
20260904051208 78 125 0.0 0.0 0.00 0.81 0.00 94 1014.9
20260904050715 78 125 0.0 0.0 0.00 0.81 0.00 94 1015.0
20260904050222 78 125 0.0 0.0 0.00 0.81 0.00 94 1015.0
20260904045713 78 125 0.0 0.0 0.00 0.81 0.00 93 1015.0
20260904045218 78 125 0.0 1.0 0.00 0.81 0.00 93 1015.1
20260904044723 78 125 0.0 1.0 0.00 0.81 0.00 93 1015.0
20260904044228 78 129 0.0 1.0 0.00 0.81 0.00 93 1015.1
20260904043711 78 120 0.0 2.0 0.00 0.81 0.00 93 1015.2
20260904043216 78 126 0.0 0.0 0.00 0.81 0.00 93 1015.2
20260904042720 78 115 0.0 1.0 0.00 0.81 0.00 93 1015.1
20260904042205 78 120 0.0 1.0 0.00 0.81 0.00 93 1015.0
20260904041709 78 122 0.0 2.0 0.00 0.81 0.00 93 1015.0
20260904041214 78 106 0.0 2.0 0.00 0.81 0.00 93 1015.0
20260904040710 78 113 0.0 1.0 0.00 0.81 0.00 93 1014.9
20260903204717 84 359 6.0 8.0 0.00 1.00 0.81 86 1012.9
20260903204218 84 1 6.0 9.0 0.00 1.00 0.81 85 1012.9
20260903203716 84 13 4.0 9.0 0.00 1.00 0.81 85 1013.0
20260903203217 84 334 7.0 9.0 0.00 1.00 0.81 85 1013.1
20260903202732 84 39 4.0 5.0 0.00 1.00 0.81 86 1013.3
20260903202233 84 31 3.0 4.0 0.00 1.00 0.81 84 1013.4
20260903201717 84 31 2.0 4.0 0.00 1.00 0.81 83 1013.5
20260903201241 84 22 3.0 4.0 0.00 1.00 0.81 82 1013.6
20260903200714 84 357 3.0 4.0 0.00 1.00 0.81 82 1013.6
20260903200216 84 18 0.0 2.0 0.00 1.40 0.81 83 1013.6
20260903195719 83 8 1.0 2.0 0.00 1.40 0.81 82 1013.7
20260903195224 83 23 1.0 2.0 0.00 1.40 0.81 83 1013.9
20260903194709 83 23 0.0 2.0 0.00 1.40 0.81 85 1013.9
20260903194213 82 24 1.0 3.0 0.00 1.40 0.81 84 1014.0
20260903193715 81 23 1.0 4.0 0.00 1.40 0.81 86 1014.2
20260903193221 81 21 3.0 4.0 0.00 1.40 0.81 86 1014.3
20260903192709 81 30 3.0 3.0 0.01 1.40 0.81 88 1014.3
20260903192218 81 30 2.0 2.0 0.02 1.40 0.81 88 1014.2
20260903191721 81 43 2.0 3.0 0.03 1.40 0.81 89 1014.3
20260903191223 81 61 2.0 3.0 0.03 1.40 0.81 89 1014.3
20260903190720 81 68 1.0 2.0 0.03 1.40 0.81 90 1014.3
20260903190205 81 196 0.0 2.0 0.03 1.40 0.81 90 1014.3
20260903185710 80 198 1.0 2.0 0.03 1.40 0.81 90 1014.4
20260903185215 80 127 1.0 2.0 0.03 1.40 0.81 90 1014.5
20260903184719 80 96 1.0 2.0 0.03 1.40 0.81 91 1014.4
20260903184224 80 120 1.0 5.0 0.03 1.40 0.81 91 1014.4
20260903183729 80 96 1.0 5.0 0.03 1.40 0.81 91 1014.4
20260903183213 80 122 3.0 7.0 0.03 1.40 0.81 91 1014.5
20260903182721 81 111 4.0 7.0 0.02 1.39 0.80 91 1014.5
20260903182225 81 86 2.0 4.0 0.01 1.38 0.79 91 1014.6
20260903181710 81 35 2.0 4.0 0.00 1.37 0.78 90 1014.8
20260903181215 81 28 3.0 4.0 0.00 1.37 0.78 90 1015.0
20260903180711 81 35 1.0 2.0 0.00 1.37 0.78 90 1015.0
20260903180216 81 35 2.0 2.0 0.00 1.38 0.78 90 1015.2
20260903175719 81 39 1.0 2.0 0.00 1.38 0.78 90 1015.1
20260903175221 80 81 0.0 2.0 0.00 1.38 0.78 91 1015.2
20260903174706 80 82 2.0 2.0 0.00 1.38 0.78 91 1015.1
20260903174211 80 85 1.0 2.0 0.00 1.38 0.78 91 1015.0
20260903173717 80 21 1.0 2.0 0.00 1.38 0.78 91 1015.1
20260903173241 79 357 2.0 3.0 0.00 1.38 0.78 92 1015.1
20260903172708 79 333 2.0 4.0 0.00 1.38 0.78 92 1015.2
20260903172213 79 311 2.0 4.0 0.01 1.38 0.78 92 1015.2
20260903171718 79 313 1.0 2.0 0.01 1.38 0.78 93 1015.3
20260903171223 79 290 1.0 4.0 0.03 1.38 0.78 93 1015.3
20260903170708 79 194 0.0 5.0 0.10 1.38 0.78 93 1015.4
20260903170214 79 243 3.0 5.0 0.16 1.65 0.78 94 1015.6
20260903165737 78 286 2.0 7.0 0.24 1.65 0.78 94 1015.7
20260903165240 78 279 4.0 7.0 0.34 1.65 0.78 94 1015.8
20260903164724 78 288 1.0 3.0 0.40 1.65 0.78 93 1015.9
20260903164208 78 133 1.0 3.0 0.51 1.65 0.78 93 1016.0
20260903163713 78 192 0.0 3.0 0.55 1.65 0.78 94 1016.1
20260903163219 78 278 0.0 3.0 0.60 1.65 0.78 94 1016.1
20260903162707 78 139 0.0 2.0 0.71 1.65 0.78 94 1016.1
20260903162211 77 240 0.0 3.0 0.76 1.64 0.77 93 1016.2
20260903161716 77 201 1.0 3.0 0.76 1.64 0.77 93 1016.2
20260903161220 77 196 1.0 2.0 0.73 1.61 0.74 92 1016.2
20260903160717 78 194 1.0 2.0 0.67 1.55 0.68 92 1016.1
20260903160218 78 191 1.0 5.0 0.62 1.49 0.62 92 1016.1
20260903155722 78 191 1.0 11.0 0.51 1.69 0.51 92 1016.1
20260903155207 78 99 7.0 11.0 0.44 1.62 0.44 92 1016.0
20260903154732 78 89 6.0 7.0 0.36 1.54 0.36 92 1016.1
20260903154236 78 73 4.0 8.0 0.27 1.45 0.28 92 1016.0
20260903153720 78 77 2.0 10.0 0.23 1.41 0.23 92 1016.0
20260903153224 79 96 5.0 13.0 0.17 1.35 0.17 92 1016.1
20260903152713 80 101 8.0 15.0 0.07 1.25 0.07 92 1016.1
20260903152218 80 85 10.0 13.0 0.01 1.19 0.01 92 1016.0
20260903151723 80 76 5.0 8.0 0.01 1.19 0.01 91 1016.0
20260903151208 80 59 5.0 9.0 0.01 1.19 0.01 91 1015.9
20260903150733 80 41 7.0 10.0 0.00 1.18 0.00 91 1015.9
20260903150218 80 43 8.0 10.0 0.00 1.18 0.00 90 1015.8
20260903145721 80 43 8.0 12.0 0.00 1.20 0.00 90 1015.6
20260903145206 81 36 10.0 17.0 0.00 1.20 0.00 89 1015.5
20260903144711 82 50 11.0 17.0 0.00 1.20 0.00 86 1015.5
20260903144215 84 42 6.0 11.0 0.00 1.20 0.00 85 1015.5
20260903143720 84 54 1.0 3.0 0.00 1.20 0.00 85 1015.5
20260903143246 84 54 1.0 3.0 0.00 1.20 0.00 85 1015.4
20260903142713 84 63 1.0 2.0 0.00 1.20 0.00 85 1015.4
20260903142218 84 73 2.0 2.0 0.00 1.20 0.00 85 1015.4
20260903141723 84 74 1.0 2.0 0.00 1.20 0.00 85 1015.4